Home   Weather   Kolonia   Past weeks

Flag for Micronesia Past Weather in Kolonia, Pohnpei, Micronesia — Yesterday and Last 2 Weeks

Now
83 °F

Mostly cloudy.


Feels Like: 91 °F
Forecast: 82 / 83 °F
Wind: 6 mph from East

Location: Pohnpei

Current Time: Apr 25, 2017 at 10:01:54 pm

Latest Report: Apr 25, 2017 at 8:51 pm


Visibility: 15 mi

Pressure: 29.88 "Hg

Humidity: 81%

Dew Point: 76 °F

Location of KoloniaLocation

Past Weather in Kolonia — Graph

°F

Kolonia Temperature Yesterday

Maximum temperature yesterday: 87 °F (at 2:50 pm)
Minimum temperature yesterday: 74 °F (at 4:53 am)
Average temperature yesterday: 82 °F

High & Low Weather Summary for the Past Weeks

 TemperatureHumidityPressure
High90 °F (Apr 20, 1:50 pm)99% (Apr 20, 4:54 pm)29.97 "Hg (Apr 20, 4:54 pm)
Low74 °F (Apr 21, 5:54 am)57% (Apr 23, 3:53 pm)29.75 "Hg (Apr 11, 4:52 pm)
Average82 °F82%29.86 "Hg
* Reported Apr 10 8:54 pm — Apr 25 8:51 pm, Kolonia, Weather by CustomWeather, © 2017

Note: Actual official high and low records may vary slightly from our data, if they occured in-between our weather recording intervals... More about our weather records

Advertising

Kolonia Weather History for the Previous 24 Hours

Scroll right to see more
 ConditionsComfort  
Time TempWeatherWind HumidityBarometerVisibility
8:51 pm
Tue, Apr 25
83 °FMostly cloudy.6 mph81%29.88 "Hg15 mi
7:54 pm83 °FPartly cloudy.6 mph81%29.88 "Hg15 mi
6:53 pm82 °FPartly cloudy.7 mph86%29.85 "Hg15 mi
5:52 pm82 °FBroken clouds.10 mph84%29.83 "Hg15 mi
5:29 pm82 °FBroken clouds.12 mph89%29.84 "Hg15 mi
4:50 pm84 °FPartly sunny.13 mph80%29.82 "Hg15 mi
4:10 pm88 °FSprinkles. Mostly cloudy.12 mph66%29.82 "Hg15 mi
3:50 pm85 °FMore clouds than sun.8 mph74%29.82 "Hg15 mi
2:50 pm87 °FMore clouds than sun.6 mph72%29.83 "Hg15 mi
1:50 pm87 °FMore clouds than sun.12 mph72%29.83 "Hg15 mi
12:50 pm87 °FBroken clouds.9 mph73%29.87 "Hg15 mi
11:50 am87 °FMore clouds than sun.13 mph72%29.89 "Hg15 mi
10:51 am86 °FMore clouds than sun.8 mph73%29.90 "Hg15 mi
9:50 am85 °FMore clouds than sun.10 mph75%29.91 "Hg15 mi
8:51 am86 °FBroken clouds.7 mph71%29.91 "Hg15 mi
7:52 am86 °FMore clouds than sun.7 mph76%29.90 "Hg15 mi
3:50 am81 °FPartly cloudy.6 mph84%29.83 "Hg15 mi
2:50 am81 °FPartly cloudy.6 mph84%29.85 "Hg15 mi
11:52 pm
Mon, Apr 24
82 °FPassing clouds.6 mph80%29.90 "Hg15 mi
10:53 pm82 °FPartly cloudy.9 mph83%29.91 "Hg15 mi
Weather by CustomWeather, © 2017

See weather overviewHow to use our weather pages